Location: Caltech
(34.1382°N, 118.1253°W)
Time: 11:14:58
(UTC-07:00)

Aureole 3 Rocket - Visible Passes

Search period start: 30 August 2014 00:00
Search period end: 09 September 2014 00:00
Orbit: 400 x 1757 km, 82.5° (Epoch: 29 August)

Date Brightness Start Highest point End Pass type
(mag) Time Alt. Az. Time Alt. Az. Time Alt. Az.
30 Aug 6.9 03:37:54 10° NNE 03:45:39 25° ENE 03:52:19 10° ESE visible
30 Aug 4.9 05:24:23 10° N 05:34:23 72° W 05:42:16 10° S visible
31 Aug 7.5 02:50:15 10° NE 02:53:17 12° ENE 02:56:10 10° ENE visible
31 Aug 5.4 04:33:29 10° N 04:43:23 63° E 04:51:08 10° SSE visible
01 Sep 6.4 03:43:13 10° N 03:51:45 33° ENE 03:58:45 10° SE visible
01 Sep 5.0 05:30:28 10° NNW 05:39:53 53° W 05:47:15 10° SSW visible
02 Sep 7.2 02:54:11 10° NNE 02:59:35 16° ENE 03:04:23 10° E visible
02 Sep 4.9 04:39:17 10° N 04:49:08 82° E 04:56:38 10° S visible
03 Sep 5.8 03:48:43 10° N 03:57:45 43° ENE 04:04:48 10° SE visible
03 Sep 5.2 05:36:42 10° NNW 05:45:12 38° W 05:51:56 10° SSW visible
04 Sep 6.8 02:59:02 10° NNE 03:05:46 21° ENE 03:11:27 10° ESE visible
04 Sep 4.6 04:45:12 10° N 04:54:44 76° W 05:01:51 10° S visible
05 Sep 5.2 03:54:22 10° N 04:03:37 56° ENE 04:10:33 10° SSE visible
05 Sep 5.5 05:43:10 10° NNW 05:50:23 27° W 05:56:16 10° SW visible
05 Sep 8.0 19:28:25 10° WNW 19:31:08 11° WNW 19:33:58 10° NW visible
06 Sep 6.3 03:04:15 10° NNE 03:11:50 28° ENE 03:17:55 10° SE visible
06 Sep 4.7 04:51:15 10° NNW 05:00:09 55° W 05:06:49 10° SSW visible
07 Sep 7.0 02:15:53 10° NE 02:19:31 13° ENE 02:22:48 10° E visible
07 Sep 4.6 04:00:07 10° N 04:09:19 75° E 04:15:20 14° SSE visible
07 Sep 5.8 05:50:03 10° NW 05:55:25 18° WNW 06:00:02 10° WSW visible
08 Sep 5.8 03:09:40 10° N 03:17:47 37° ENE 03:22:48 16° SE visible
08 Sep 4.9 04:57:28 10° NNW 05:05:24 39° W 05:09:32 20° SW visible
